| time (UTC) | temp C | wind direction | speed KPH | gust KPH | rain 1hr cm | rain 24hr cm | rain mn cm | humidity % | barometer mb |
| 20260906220005 | 25 | 34 | 9.7 | 20.9 | 0.00 | 0.00 | 0.00 | 44 | 1004.7 |
| 20260906215006 | 25 | 54 | 9.7 | 22.5 | 0.00 | 0.00 | 0.00 | 43 | 1004.7 |
| 20260906214505 | 25 | 96 | 14.5 | 22.5 | 0.00 | 0.00 | 0.00 | 44 | 1004.8 |
| 20260906214006 | 25 | 34 | 6.4 | 20.9 | 0.00 | 0.00 | 0.00 | 44 | 1004.8 |
| 20260906213506 | 25 | 51 | 8.0 | 20.9 | 0.00 | 0.00 | 0.00 | 44 | 1004.8 |
| 20260906213006 | 25 | 73 | 8.0 | 24.1 | 0.00 | 0.00 | 0.00 | 44 | 1004.9 |
| 20260906212006 | 25 | 62 | 9.7 | 24.1 | 0.00 | 0.00 | 0.00 | 44 | 1004.9 |
| 20260906211505 | 25 | 98 | 12.9 | 19.3 | 0.00 | 0.00 | 0.00 | 45 | 1005.1 |
| 20260906211005 | 25 | 58 | 8.0 | 19.3 | 0.00 | 0.00 | 0.00 | 45 | 1005.2 |
| 20260906210006 | 25 | 83 | 6.4 | 29.0 | 0.00 | 0.00 | 0.00 | 45 | 1005.3 |
| 20260906205505 | 25 | 78 | 11.3 | 29.0 | 0.00 | 0.00 | 0.00 | 46 | 1005.3 |
| 20260906204506 | 24 | 100 | 14.5 | 25.7 | 0.00 | 0.00 | 0.00 | 48 | 1005.5 |
| 20260906204006 | 24 | 92 | 19.3 | 25.7 | 0.00 | 0.00 | 0.00 | 47 | 1005.6 |
| 20260906203506 | 24 | 101 | 14.5 | 20.9 | 0.00 | 0.00 | 0.00 | 48 | 1005.6 |
| 20260906203006 | 24 | 65 | 3.2 | 20.9 | 0.00 | 0.00 | 0.00 | 48 | 1005.6 |
| 20260906201506 | 24 | 55 | 16.1 | 24.1 | 0.00 | 0.00 | 0.00 | 48 | 1005.8 |
| 20260906201006 | 24 | 99 | 12.9 | 22.5 | 0.00 | 0.00 | 0.00 | 49 | 1005.8 |
| 20260906200005 | 23 | 113 | 14.5 | 25.7 | 0.00 | 0.00 | 0.00 | 50 | 1006.0 |
| 20260906195505 | 23 | 97 | 8.0 | 25.7 | 0.00 | 0.00 | 0.00 | 53 | 1006.0 |
| 20260906194506 | 22 | 78 | 14.5 | 27.4 | 0.00 | 0.00 | 0.00 | 54 | 1006.2 |
| 20260906194006 | 22 | 65 | 16.1 | 27.4 | 0.00 | 0.00 | 0.00 | 55 | 1006.3 |
| 20260906193506 | 22 | 75 | 16.1 | 27.4 | 0.00 | 0.00 | 0.00 | 56 | 1006.5 |
| 20260906193005 | 22 | 80 | 14.5 | 24.1 | 0.00 | 0.00 | 0.00 | 56 | 1006.5 |
| 20260906192506 | 22 | 76 | 16.1 | 24.1 | 0.00 | 0.00 | 0.00 | 54 | 1006.6 |
| 20260906192005 | 22 | 65 | 12.9 | 25.7 | 0.00 | 0.00 | 0.00 | 56 | 1006.7 |
| 20260906191506 | 22 | 84 | 16.1 | 25.7 | 0.00 | 0.00 | 0.00 | 56 | 1006.8 |
| 20260906191006 | 22 | 63 | 12.9 | 20.9 | 0.00 | 0.00 | 0.00 | 56 | 1006.8 |
| 20260906190005 | 22 | 56 | 8.0 | 22.5 | 0.00 | 0.00 | 0.00 | 57 | 1007.0 |
| 20260906185506 | 22 | 68 | 14.5 | 22.5 | 0.00 | 0.00 | 0.00 | 58 | 1007.1 |
| 20260906185005 | 21 | 67 | 8.0 | 22.5 | 0.00 | 0.00 | 0.00 | 58 | 1007.2 |
| 20260906184006 | 21 | 66 | 9.7 | 20.9 | 0.00 | 0.00 | 0.00 | 60 | 1007.4 |
| 20260906183506 | 21 | 75 | 12.9 | 20.9 | 0.00 | 0.00 | 0.00 | 61 | 1007.5 |
| 20260906182505 | 20 | 75 | 12.9 | 22.5 | 0.00 | 0.00 | 0.00 | 63 | 1007.7 |
| 20260906182006 | 20 | 19 | 6.4 | 16.1 | 0.00 | 0.00 | 0.00 | 63 | 1007.8 |
| 20260906181505 | 20 | 86 | 4.8 | 16.1 | 0.00 | 0.00 | 0.00 | 62 | 1007.8 |
| 20260906180005 | 20 | 105 | 4.8 | 16.1 | 0.00 | 0.00 | 0.00 | 65 | 1008.0 |
| 20260906175006 | 19 | 44 | 4.8 | 16.1 | 0.00 | 0.00 | 0.00 | 66 | 1008.0 |
| 20260906174505 | 18 | 348 | 4.8 | 11.3 | 0.00 | 0.00 | 0.00 | 66 | 1008.2 |
| 20260906174006 | 18 | 302 | 6.4 | 11.3 | 0.00 | 0.00 | 0.00 | 66 | 1008.4 |
| 20260906173506 | 18 | 289 | 3.2 | 12.9 | 0.00 | 0.00 | 0.00 | 66 | 1008.4 |
| 20260906173006 | 18 | 276 | 3.2 | 12.9 | 0.00 | 0.00 | 0.00 | 66 | 1008.5 |
| 20260906172505 | 18 | 321 | 9.7 | 12.9 | 0.00 | 0.00 | 0.00 | 67 | 1008.6 |
| 20260906171505 | 18 | 335 | 3.2 | 14.5 | 0.00 | 0.00 | 0.00 | 68 | 1008.7 |
| 20260906171006 | 18 | 324 | 9.7 | 14.5 | 0.00 | 0.00 | 0.00 | 68 | 1008.8 |
| 20260906170006 | 17 | 335 | 0.0 | 16.1 | 0.00 | 0.00 | 0.00 | 68 | 1008.9 |
| 20260906165506 | 17 | 334 | 6.4 | 16.1 | 0.00 | 0.00 | 0.00 | 67 | 1008.9 |
| 20260906165006 | 17 | 324 | 6.4 | 12.9 | 0.00 | 0.00 | 0.00 | 68 | 1008.9 |
| 20260906164505 | 17 | 298 | 3.2 | 12.9 | 0.00 | 0.00 | 0.00 | 70 | 1009.0 |
| 20260906164005 | 17 | 304 | 8.0 | 12.9 | 0.00 | 0.00 | 0.00 | 70 | 1009.0 |
| 20260906163506 | 17 | 283 | 4.8 | 16.1 | 0.00 | 0.00 | 0.00 | 70 | 1009.1 |
| 20260906163006 | 17 | 293 | 6.4 | 16.1 | 0.00 | 0.00 | 0.00 | 69 | 1009.3 |
| 20260906162505 | 17 | 302 | 8.0 | 14.5 | 0.00 | 0.00 | 0.00 | 71 | 1009.3 |
| 20260906162005 | 17 | 300 | 8.0 | 14.5 | 0.00 | 0.00 | 0.00 | 71 | 1009.4 |
| 20260906161505 | 16 | 274 | 8.0 | 16.1 | 0.00 | 0.00 | 0.00 | 71 | 1009.5 |
| 20260906161006 | 16 | 299 | 8.0 | 16.1 | 0.00 | 0.00 | 0.00 | 71 | 1009.5 |
| 20260906160005 | 16 | 268 | 8.0 | 12.9 | 0.00 | 0.00 | 0.00 | 70 | 1009.6 |
| 20260906155005 | 16 | 272 | 9.7 | 12.9 | 0.00 | 0.00 | 0.00 | 72 | 1009.7 |
| 20260906154506 | 16 | 254 | 6.4 | 11.3 | 0.00 | 0.00 | 0.00 | 72 | 1009.8 |
| 20260906154006 | 16 | 268 | 4.8 | 11.3 | 0.00 | 0.00 | 0.00 | 73 | 1009.7 |
| 20260906153506 | 16 | 268 | 4.8 | 11.3 | 0.00 | 0.00 | 0.00 | 74 | 1009.7 |
| 20260906153006 | 16 | 253 | 4.8 | 8.0 | 0.00 | 0.00 | 0.00 | 74 | 1009.8 |
| 20260906152005 | 15 | 197 | 0.0 | 0.0 | 0.00 | 0.00 | 0.00 | 72 | 1009.8 |
| 20260906151505 | 15 | 196 | 0.0 | 4.8 | 0.00 | 0.00 | 0.00 | 72 | 1009.8 |
| 20260906151006 | 15 | 196 | 1.6 | 4.8 | 0.00 | 0.00 | 0.00 | 74 | 1009.8 |
| 20260906150005 | 15 | 195 | 1.6 | 9.7 | 0.00 | 0.00 | 0.00 | 72 | 1009.8 |
| 20260906144506 | 13 | 203 | 4.8 | 9.7 | 0.00 | 0.00 | 0.00 | 71 | 1010.0 |
| 20260906142506 | 12 | 227 | 8.0 | 12.9 | 0.00 | 0.00 | 0.00 | 70 | 1010.0 |
| 20260906142006 | 13 | 200 | 8.0 | 12.9 | 0.00 | 0.00 | 0.00 | 70 | 1009.9 |
| 20260906141505 | 13 | 202 | 8.0 | 12.9 | 0.00 | 0.00 | 0.00 | 70 | 1009.9 |
| 20260906141005 | 13 | 213 | 6.4 | 12.9 | 0.00 | 0.00 | 0.00 | 69 | 1009.8 |
| 20260906135507 | 14 | 66 | 0.0 | 3.2 | 0.00 | 0.00 | 0.00 | 78 | 1009.5 |
| 20260906135006 | 13 | 65 | 0.0 | 4.8 | 0.00 | 0.00 | 0.00 | 78 | 1009.4 |
| 20260906134506 | 13 | 66 | 1.6 | 4.8 | 0.00 | 0.00 | 0.00 | 79 | 1009.3 |
| 20260906134005 | 13 | 63 | 3.2 | 4.8 | 0.00 | 0.00 | 0.00 | 79 | 1009.3 |
| 20260906133505 | 13 | 62 | 3.2 | 4.8 | 0.00 | 0.00 | 0.00 | 78 | 1009.3 |
| 20260906133005 | 13 | 62 | 3.2 | 8.0 | 0.00 | 0.00 | 0.00 | 78 | 1009.3 |
| 20260906132505 | 13 | 61 | 4.8 | 9.7 | 0.00 | 0.00 | 0.00 | 78 | 1009.2 |
| 20260906132005 | 13 | 60 | 6.4 | 9.7 | 0.00 | 0.00 | 0.00 | 78 | 1009.2 |
| 20260906131506 | 13 | 61 | 8.0 | 11.3 | 0.00 | 0.00 | 0.00 | 78 | 1009.3 |
| 20260906131005 | 13 | 55 | 8.0 | 12.9 | 0.00 | 0.00 | 0.00 | 77 | 1009.2 |
| 20260906130005 | 13 | 82 | 9.7 | 12.9 | 0.00 | 0.00 | 0.00 | 76 | 1009.2 |
| 20260906125506 | 13 | 81 | 8.0 | 12.9 | 0.00 | 0.00 | 0.00 | 76 | 1009.3 |
| 20260906124505 | 13 | 68 | 4.8 | 8.0 | 0.00 | 0.00 | 0.00 | 74 | 1009.5 |
| 20260906124006 | 13 | 65 | 3.2 | 4.8 | 0.00 | 0.00 | 0.00 | 73 | 1009.6 |
| 20260906123506 | 13 | 64 | 4.8 | 4.8 | 0.00 | 0.00 | 0.00 | 73 | 1009.6 |
| 20260906123006 | 13 | 63 | 3.2 | 4.8 | 0.00 | 0.00 | 0.00 | 73 | 1009.6 |
| 20260906122505 | 13 | 63 | 3.2 | 4.8 | 0.00 | 0.00 | 0.00 | 73 | 1009.7 |
| 20260906122005 | 13 | 63 | 3.2 | 4.8 | 0.00 | 0.00 | 0.00 | 73 | 1009.7 |
| 20260906121505 | 13 | 63 | 3.2 | 4.8 | 0.00 | 0.00 | 0.00 | 73 | 1009.7 |
| 20260906121005 | 13 | 62 | 4.8 | 4.8 | 0.00 | 0.00 | 0.00 | 74 | 1009.6 |
| 20260906115505 | 13 | 61 | 4.8 | 4.8 | 0.00 | 0.00 | 0.00 | 74 | 1009.6 |
| 20260906115006 | 13 | 60 | 1.6 | 8.0 | 0.00 | 0.00 | 0.00 | 74 | 1009.6 |
| 20260906114506 | 13 | 60 | 4.8 | 8.0 | 0.00 | 0.00 | 0.00 | 74 | 1009.6 |
| 20260906113506 | 13 | 61 | 3.2 | 9.7 | 0.00 | 0.00 | 0.00 | 72 | 1009.7 |
| 20260906113006 | 13 | 57 | 8.0 | 9.7 | 0.00 | 0.00 | 0.00 | 73 | 1009.5 |
| 20260906112505 | 12 | 54 | 3.2 | 8.0 | 0.00 | 0.00 | 0.00 | 73 | 1009.8 |
| 20260906112005 | 12 | 54 | 8.0 | 8.0 | 0.00 | 0.00 | 0.00 | 72 | 1009.5 |
| 20260906111506 | 12 | 56 | 4.8 | 8.0 | 0.00 | 0.00 | 0.00 | 72 | 1009.6 |
| 20260906111005 | 12 | 57 | 4.8 | 9.7 | 0.00 | 0.00 | 0.00 | 72 | 1009.6 |
| 20260906110005 | 12 | 47 | 8.0 | 8.0 | 0.00 | 0.00 | 0.00 | 73 | 1009.7 |
| 20260906105505 | 12 | 44 | 8.0 | 8.0 | 0.00 | 0.00 | 0.00 | 73 | 1009.7 |
| 20260906105005 | 12 | 36 | 4.8 | 9.7 | 0.00 | 0.00 | 0.00 | 72 | 1009.7 |
| 20260906104005 | 12 | 42 | 4.8 | 9.7 | 0.00 | 0.00 | 0.00 | 73 | 1009.8 |
| 20260906103506 | 12 | 39 | 4.8 | 8.0 | 0.00 | 0.00 | 0.00 | 73 | 1009.8 |
| 20260906103006 | 12 | 39 | 4.8 | 9.7 | 0.00 | 0.00 | 0.00 | 73 | 1009.7 |
| 20260906102506 | 12 | 42 | 4.8 | 9.7 | 0.00 | 0.00 | 0.00 | 73 | 1009.7 |
| 20260906102006 | 12 | 30 | 4.8 | 4.8 | 0.00 | 0.00 | 0.00 | 71 | 1009.9 |
| 20260906101505 | 12 | 26 | 3.2 | 8.0 | 0.00 | 0.00 | 0.00 | 69 | 1009.9 |
| 20260906101005 | 12 | 27 | 3.2 | 11.3 | 0.00 | 0.00 | 0.00 | 68 | 1009.9 |
| 20260906100006 | 13 | 24 | 3.2 | 8.0 | 0.00 | 0.00 | 0.00 | 64 | 1009.9 |
| 20260906095506 | 13 | 27 | 3.2 | 8.0 | 0.00 | 0.00 | 0.00 | 62 | 1009.9 |
| 20260906095006 | 13 | 25 | 4.8 | 8.0 | 0.00 | 0.00 | 0.00 | 62 | 1009.9 |
| 20260906094505 | 13 | 43 | 4.8 | 8.0 | 0.00 | 0.00 | 0.00 | 61 | 1009.9 |
| 20260906094005 | 13 | 49 | 4.8 | 8.0 | 0.00 | 0.00 | 0.00 | 59 | 1009.9 |
| 20260906093506 | 14 | 54 | 3.2 | 4.8 | 0.00 | 0.00 | 0.00 | 58 | 1010.0 |
| 20260906093005 | 14 | 55 | 3.2 | 4.8 | 0.00 | 0.00 | 0.00 | 57 | 1010.0 |
| 20260906092005 | 14 | 56 | 4.8 | 8.0 | 0.00 | 0.00 | 0.00 | 57 | 1010.1 |
| 20260906091005 | 14 | 52 | 3.2 | 8.0 | 0.00 | 0.00 | 0.00 | 57 | 1010.1 |
| 20260906090006 | 14 | 63 | 4.8 | 8.0 | 0.00 | 0.00 | 0.00 | 57 | 1010.2 |
| 20260906085505 | 14 | 61 | 3.2 | 9.7 | 0.00 | 0.00 | 0.00 | 57 | 1010.1 |
| 20260906085006 | 14 | 58 | 6.4 | 9.7 | 0.00 | 0.00 | 0.00 | 58 | 1010.0 |
| 20260906084506 | 14 | 54 | 6.4 | 9.7 | 0.00 | 0.00 | 0.00 | 58 | 1009.9 |
| 20260906084006 | 14 | 56 | 4.8 | 9.7 | 0.00 | 0.00 | 0.00 | 57 | 1010.0 |
| 20260906083505 | 14 | 57 | 4.8 | 9.7 | 0.00 | 0.00 | 0.00 | 57 | 1009.9 |
| 20260906083005 | 14 | 35 | 4.8 | 8.0 | 0.00 | 0.00 | 0.00 | 57 | 1010.1 |
| 20260906082505 | 14 | 29 | 4.8 | 9.7 | 0.00 | 0.00 | 0.00 | 57 | 1010.2 |
| 20260906082005 | 14 | 32 | 6.4 | 9.7 | 0.00 | 0.00 | 0.00 | 56 | 1010.1 |
| 20260906081505 | 15 | 30 | 8.0 | 11.3 | 0.00 | 0.00 | 0.00 | 56 | 1010.1 |
| 20260906081005 | 15 | 45 | 6.4 | 14.5 | 0.00 | 0.00 | 0.00 | 55 | 1010.3 |
| 20260906080005 | 15 | 45 | 8.0 | 12.9 | 0.00 | 0.00 | 0.00 | 55 | 1010.2 |
| 20260906075505 | 15 | 40 | 6.4 | 12.9 | 0.00 | 0.00 | 0.00 | 54 | 1010.2 |
| 20260906075005 | 15 | 27 | 8.0 | 12.9 | 0.00 | 0.00 | 0.00 | 54 | 1010.1 |
| 20260906074505 | 15 | 27 | 6.4 | 11.3 | 0.00 | 0.00 | 0.00 | 53 | 1010.2 |
| 20260906074005 | 15 | 77 | 4.8 | 8.0 | 0.00 | 0.00 | 0.00 | 52 | 1010.3 |
| 20260906073505 | 15 | 78 | 3.2 | 8.0 | 0.00 | 0.00 | 0.00 | 52 | 1010.5 |
| 20260906073005 | 16 | 79 | 3.2 | 4.8 | 0.00 | 0.00 | 0.00 | 51 | 1010.5 |
| 20260906072505 | 16 | 79 | 3.2 | 4.8 | 0.00 | 0.00 | 0.00 | 50 | 1010.5 |
| 20260906071505 | 16 | 80 | 4.8 | 8.0 | 0.00 | 0.00 | 0.00 | 51 | 1010.5 |
| 20260906071005 | 16 | 81 | 3.2 | 4.8 | 0.00 | 0.00 | 0.00 | 51 | 1010.6 |
| 20260906070005 | 16 | 83 | 3.2 | 8.0 | 0.00 | 0.00 | 0.00 | 49 | 1010.6 |
| 20260906065505 | 16 | 85 | 4.8 | 11.3 | 0.00 | 0.00 | 0.00 | 49 | 1010.6 |
| 20260906065005 | 16 | 85 | 8.0 | 11.3 | 0.00 | 0.00 | 0.00 | 49 | 1010.6 |
| 20260906064505 | 16 | 89 | 4.8 | 11.3 | 0.00 | 0.00 | 0.00 | 50 | 1010.6 |
| 20260906064005 | 16 | 81 | 4.8 | 9.7 | 0.00 | 0.00 | 0.00 | 50 | 1010.6 |
| 20260906063505 | 16 | 92 | 4.8 | 9.7 | 0.00 | 0.00 | 0.00 | 51 | 1010.7 |
| 20260906063005 | 16 | 95 | 3.2 | 9.7 | 0.00 | 0.00 | 0.00 | 51 | 1010.6 |
| 20260906061505 | 16 | 95 | 6.4 | 9.7 | 0.00 | 0.00 | 0.00 | 50 | 1010.6 |
| 20260906061005 | 16 | 89 | 8.0 | 9.7 | 0.00 | 0.00 | 0.00 | 49 | 1010.6 |
| 20260906055505 | 16 | 83 | 3.2 | 8.0 | 0.00 | 0.00 | 0.00 | 47 | 1010.5 |
| 20260906055005 | 17 | 83 | 4.8 | 12.9 | 0.00 | 0.00 | 0.00 | 46 | 1010.4 |
| 20260906054505 | 17 | 76 | 6.4 | 14.5 | 0.00 | 0.00 | 0.00 | 45 | 1010.3 |
| 20260906054005 | 17 | 53 | 9.7 | 14.5 | 0.00 | 0.00 | 0.00 | 45 | 1010.4 |
| 20260906052505 | 17 | 69 | 3.2 | 9.7 | 0.00 | 0.00 | 0.00 | 44 | 1010.4 |
| 20260906052005 | 17 | 61 | 6.4 | 9.7 | 0.00 | 0.00 | 0.00 | 44 | 1010.5 |
| 20260906051505 | 17 | 56 | 8.0 | 9.7 | 0.00 | 0.00 | 0.00 | 44 | 1010.5 |
| 20260906051005 | 17 | 59 | 4.8 | 8.0 | 0.00 | 0.00 | 0.00 | 44 | 1010.6 |
| 20260906050005 | 17 | 59 | 6.4 | 8.0 | 0.00 | 0.00 | 0.00 | 43 | 1010.7 |
| 20260906045505 | 18 | 60 | 4.8 | 9.7 | 0.00 | 0.00 | 0.00 | 43 | 1010.6 |
| 20260906045005 | 18 | 62 | 8.0 | 9.7 | 0.00 | 0.00 | 0.00 | 42 | 1010.6 |
| 20260906044505 | 18 | 66 | 4.8 | 8.0 | 0.00 | 0.00 | 0.00 | 42 | 1010.6 |
| 20260906044005 | 18 | 76 | 3.2 | 4.8 | 0.00 | 0.00 | 0.00 | 42 | 1010.5 |
| 20260906043505 | 18 | 76 | 4.8 | 4.8 | 0.00 | 0.00 | 0.00 | 42 | 1010.6 |
| 20260906043005 | 18 | 78 | 3.2 | 12.9 | 0.00 | 0.00 | 0.00 | 41 | 1010.5 |
| 20260906042505 | 18 | 79 | 4.8 | 12.9 | 0.00 | 0.00 | 0.00 | 41 | 1010.6 |
| 20260906042005 | 18 | 80 | 6.4 | 11.3 | 0.00 | 0.00 | 0.00 | 41 | 1010.5 |
| 20260906041505 | 18 | 64 | 4.8 | 12.9 | 0.00 | 0.00 | 0.00 | 41 | 1010.5 |
| 20260906035506 | 18 | 62 | 9.7 | 12.9 | 0.00 | 0.00 | 0.00 | 40 | 1010.4 |
| 20260906035005 | 18 | 79 | 4.8 | 8.0 | 0.00 | 0.00 | 0.00 | 40 | 1010.4 |
| 20260906034005 | 18 | 66 | 6.4 | 12.9 | 0.00 | 0.00 | 0.00 | 40 | 1010.3 |
| 20260906033505 | 18 | 59 | 8.0 | 9.7 | 0.00 | 0.00 | 0.00 | 40 | 1010.3 |
| 20260906033006 | 18 | 56 | 4.8 | 9.7 | 0.00 | 0.00 | 0.00 | 40 | 1010.3 |
| 20260906032505 | 18 | 56 | 6.4 | 8.0 | 0.00 | 0.00 | 0.00 | 40 | 1010.3 |
| 20260906031505 | 19 | 58 | 4.8 | 11.3 | 0.00 | 0.00 | 0.00 | 39 | 1010.2 |
| 20260906030005 | 19 | 59 | 4.8 | 8.0 | 0.00 | 0.00 | 0.00 | 40 | 1010.0 |
| 20260906025505 | 20 | 61 | 3.2 | 11.3 | 0.00 | 0.00 | 0.00 | 39 | 1010.0 |
| 20260906025007 | 20 | 58 | 6.4 | 11.3 | 0.00 | 0.00 | 0.00 | 39 | 1009.9 |
| 20260906024505 | 20 | 55 | 3.2 | 11.3 | 0.00 | 0.00 | 0.00 | 38 | 1009.9 |
| 20260906024005 | 20 | 53 | 4.8 | 11.3 | 0.00 | 0.00 | 0.00 | 38 | 1009.7 |
| 20260906023505 | 20 | 90 | 8.0 | 16.1 | 0.00 | 0.00 | 0.00 | 38 | 1009.5 |
| 20260906023005 | 20 | 100 | 8.0 | 16.1 | 0.00 | 0.00 | 0.00 | 38 | 1009.5 |
| 20260906022505 | 20 | 96 | 11.3 | 16.1 | 0.00 | 0.00 | 0.00 | 37 | 1009.4 |
| 20260906022005 | 20 | 100 | 11.3 | 16.1 | 0.00 | 0.00 | 0.00 | 37 | 1009.5 |
| 20260906020004 | 21 | 106 | 12.9 | 19.3 | 0.00 | 0.00 | 0.00 | 35 | 1009.3 |
| 20260906015505 | 21 | 101 | 11.3 | 20.9 | 0.00 | 0.00 | 0.00 | 34 | 1009.2 |
| 20260906015005 | 22 | 103 | 16.1 | 20.9 | 0.00 | 0.00 | 0.00 | 34 | 1009.1 |
| 20260906014505 | 22 | 98 | 16.1 | 20.9 | 0.00 | 0.00 | 0.00 | 33 | 1009.0 |
| 20260906014005 | 22 | 107 | 16.1 | 25.7 | 0.00 | 0.00 | 0.00 | 33 | 1009.0 |
| 20260906013505 | 22 | 103 | 17.7 | 25.7 | 0.00 | 0.00 | 0.00 | 32 | 1009.0 |
| 20260906013005 | 23 | 107 | 16.1 | 24.1 | 0.00 | 0.00 | 0.00 | 31 | 1008.9 |
| 20260906012005 | 23 | 95 | 16.1 | 24.1 | 0.00 | 0.00 | 0.00 | 30 | 1008.8 |
| 20260906011505 | 23 | 98 | 14.5 | 24.1 | 0.00 | 0.00 | 0.00 | 29 | 1008.8 |
| 20260906011005 | 24 | 85 | 16.1 | 25.7 | 0.00 | 0.00 | 0.00 | 28 | 1008.8 |
| 20260906010004 | 24 | 87 | 14.5 | 25.7 | 0.00 | 0.00 | 0.00 | 27 | 1008.8 |
| 20260906005505 | 24 | 84 | 19.3 | 25.7 | 0.00 | 0.00 | 0.00 | 27 | 1008.7 |
| 20260906005005 | 24 | 87 | 16.1 | 25.7 | 0.00 | 0.00 | 0.00 | 27 | 1008.7 |
| 20260906004505 | 25 | 63 | 14.5 | 24.1 | 0.00 | 0.00 | 0.00 | 27 | 1008.7 |
| 20260906004005 | 25 | 77 | 17.7 | 24.1 | 0.00 | 0.00 | 0.00 | 27 | 1008.6 |
| 20260906003005 | 25 | 71 | 17.7 | 27.4 | 0.00 | 0.00 | 0.00 | 26 | 1008.6 |
| 20260906002505 | 25 | 49 | 16.1 | 22.5 | 0.00 | 0.00 | 0.00 | 26 | 1008.6 |
| 20260906002006 | 25 | 57 | 14.5 | 22.5 | 0.00 | 0.00 | 0.00 | 26 | 1008.6 |
| 20260906001505 | 25 | 84 | 14.5 | 19.3 | 0.00 | 0.00 | 0.00 | 26 | 1008.6 |
| 20260906001005 | 25 | 88 | 14.5 | 25.7 | 0.00 | 0.00 | 0.00 | 26 | 1008.7 |
| 20260906000005 | 25 | 85 | 14.5 | 25.7 | 0.00 | 0.00 | 0.00 | 26 | 1008.7 |
| 20260905235505 | 25 | 89 | 17.7 | 24.1 | 0.00 | 0.00 | 0.00 | 26 | 1008.7 |
| 20260905235005 | 25 | 70 | 14.5 | 25.7 | 0.00 | 0.00 | 0.00 | 26 | 1008.7 |
| 20260905234505 | 25 | 108 | 19.3 | 29.0 | 0.00 | 0.00 | 0.00 | 26 | 1008.6 |
| 20260905234005 | 25 | 85 | 14.5 | 29.0 | 0.00 | 0.00 | 0.00 | 26 | 1008.7 |
| 20260905233505 | 25 | 59 | 11.3 | 22.5 | 0.00 | 0.00 | 0.00 | 25 | 1008.6 |
| 20260905233005 | 25 | 100 | 14.5 | 25.7 | 0.00 | 0.00 | 0.00 | 25 | 1008.6 |
| 20260905232005 | 26 | 106 | 20.9 | 25.7 | 0.00 | 0.00 | 0.00 | 25 | 1008.6 |
| 20260905231505 | 25 | 85 | 12.9 | 25.7 | 0.00 | 0.00 | 0.00 | 25 | 1008.6 |
| 20260905231005 | 25 | 105 | 20.9 | 25.7 | 0.00 | 0.00 | 0.00 | 25 | 1008.5 |
| 20260905230005 | 25 | 93 | 16.1 | 25.7 | 0.00 | 0.00 | 0.00 | 26 | 1008.6 |
| 20260905225505 | 26 | 72 | 8.0 | 22.5 | 0.00 | 0.00 | 0.00 | 25 | 1008.6 |
| 20260905225005 | 26 | 81 | 12.9 | 27.4 | 0.00 | 0.00 | 0.00 | 25 | 1008.6 |
| 20260905224004 | 25 | 94 | 19.3 | 27.4 | 0.00 | 0.00 | 0.00 | 26 | 1008.6 |
| 20260905223505 | 25 | 84 | 14.5 | 29.0 | 0.00 | 0.00 | 0.00 | 26 | 1008.6 |
| 20260905223005 | 25 | 79 | 8.0 | 29.0 | 0.00 | 0.00 | 0.00 | 26 | 1008.6 |
| 20260905222505 | 25 | 81 | 14.5 | 29.0 | 0.00 | 0.00 | 0.00 | 27 | 1008.6 |
| 20260905222005 | 24 | 80 | 12.9 | 22.5 | 0.00 | 0.00 | 0.00 | 27 | 1008.7 |
| 20260905221505 | 24 | 57 | 11.3 | 25.7 | 0.00 | 0.00 | 0.00 | 28 | 1008.8 |
| 20260905221005 | 23 | 69 | 16.1 | 25.7 | 0.00 | 0.00 | 0.00 | 28 | 1008.8 |